Location: Saint-Hippolyte
(43.6394°N, 4.7559°E)
Time: 15:38:40
(UTC+00:00)

CZ-4C R/B - Pass Details

Date: 24 October 2020
Orbit: 624 x 1378 km, 63.4° (Epoch: 23 November)

Event Time Altitude Azimuth Distance (km) Brightness Sun altitude
Rises 19:29:48 0° 324° (NW) 3,680 6.2 -30.7°
Reaches altitude 10° 19:32:45 10° 338° (NNW) 2,856 5.3 -31.3°
Enters shadow 19:37:14 25° 18° (NNE) 2,140 4.2 -32.1°
